KUIPER-00121

导读

KUIPER-00132是美国亚马逊“柯伊伯计划”卫星互联网星座中的一颗卫星,于2025年9月25日发射升空。该项目旨在近地轨道部署超3200颗卫星,提供全球卫星互联网服务,与SpaceX星链项目形成竞争。项目总投资达100亿美元,规划在2029年前完成全面组网,KUIPER-00132的成功发射是项目组网进程中的重要一步,助力亚马逊推进低轨互联网星座建设。

Basic Information
目录编号:
65763
目录名称:
KUIPER-00132
国际标识:
2025-217B
轨道中心:
EARTH
卫星名称:
KUIPER-00132
卫星全名:
KUIPER-00121
卫星状态:
在轨 (已飞行352 天)
发射日期:
2025-09-25 UTC
国别 :
美国 (US)
星等 :
--
This satellite is enrolled in the Space Conjunction Data Service (SCDS) and the current flight risk assessment level is: No High Risk
Orbit Information
数据来源 国际轨道数据 AOE轨道数据
星历时间 2026-09-12T03:38:41+0800
7小时前
查看轨道信息
2026-09-05T12:00:00+0800
6天前
查看轨道信息
半长轴 6826.361km 6826.788km
偏心率 0.0004716 0.0004921
轨道倾角 51.851° 51.851°
近地点辐角 269.824° 244.799°
升交点赤经 177.570° 209.838°
平近点角 90.221° 312.566°
近地点 445.004km 445.291km
远地点 451.444km 452.011km
周期 93.550分钟 93.559分钟
每日圈数 15.392845 15.391402
Detailed Information
使用方式:
暂无
2D Orbit Map
3D Orbit Map
Orbit Altitude Analysis Chart
Orbit Inclination Analysis Chart
Orbit Comprehensive Analysis Chart
View Comprehensive Chart
Miss Distance Evolution Trend with All Objects
Collision Probability Evolution Trend with All Objects